ASA93 KDEN-PHOG

Flight info

Callsign ASA93
Flight time N/A
Altitude 40000
Route ZIMMR4 CHNGY EKR OGD LCU KU66I KO66G FOT C1415 VESPA 40N130W 35N140W 30N148W AUNTI R463 APACK LNDHY1
Aircraft B789/H-SDE1E2E3FGHIJ2J3J4J5M1RWXY/LB1D1

Departure

Time 2026-05-05 03:22
Airport Denver International Airport (KDEN)

Arrival

Time N/A
Airport Kahului International Airport (PHOG)
Time Latitude Longitude Altitude Speed Heading
2026-05-05 02:56 39.85805 -104.67550 5392 ft 0 kts 358°
2026-05-05 03:09 39.85789 -104.67549 5381 ft 3 kts 358°
2026-05-05 03:09 39.85770 -104.67549 5381 ft 3 kts 353°
2026-05-05 03:10 39.85751 -104.67541 5381 ft 3 kts 311°
2026-05-05 03:10 39.85740 -104.67519 5381 ft 3 kts 271°
2026-05-05 03:10 39.85740 -104.67512 5381 ft 0 kts 268°
2026-05-05 03:15 39.85740 -104.67515 5381 ft 3 kts 266°
2026-05-05 03:15 39.85737 -104.67590 5385 ft 14 kts 269°
2026-05-05 03:15 39.85735 -104.67753 5384 ft 23 kts 270°
2026-05-05 03:16 39.85733 -104.67962 5386 ft 22 kts 258°
2026-05-05 03:16 39.85678 -104.68076 5384 ft 16 kts 249°
2026-05-05 03:16 39.85686 -104.68229 5386 ft 17 kts 277°
2026-05-05 03:16 39.85688 -104.68401 5373 ft 24 kts 271°
2026-05-05 03:17 39.85630 -104.68514 5375 ft 15 kts 189°
2026-05-05 03:17 39.85505 -104.68518 5377 ft 23 kts 181°
2026-05-05 03:17 39.85305 -104.68520 5376 ft 33 kts 180°
2026-05-05 03:17 39.85186 -104.68584 5371 ft 14 kts 282°
2026-05-05 03:18 39.85201 -104.68723 5365 ft 18 kts 270°
2026-05-05 03:18 39.85198 -104.68948 5358 ft 31 kts 269°
2026-05-05 03:18 39.85198 -104.69271 5351 ft 37 kts 272°
2026-05-05 03:18 39.85201 -104.69491 5344 ft 0 kts 270°
2026-05-05 03:20 39.85201 -104.69513 5343 ft 8 kts 270°
2026-05-05 03:20 39.85210 -104.69616 5341 ft 13 kts 291°
2026-05-05 03:20 39.85293 -104.69660 5340 ft 15 kts 360°
2026-05-05 03:20 39.85338 -104.69660 5340 ft 14 kts
2026-05-05 03:21 39.85632 -104.69655 5347 ft 74 kts
2026-05-05 03:21 39.86362 -104.69645 5340 ft 135 kts
2026-05-05 03:21 39.87466 -104.69632 5375 ft 177 kts
2026-05-05 03:21 39.88718 -104.69608 5760 ft 190 kts
2026-05-05 03:22 39.90092 -104.69605 6405 ft 198 kts
2026-05-05 03:22 39.91433 -104.69880 7094 ft 195 kts 339°
2026-05-05 03:22 39.92484 -104.70939 7724 ft 193 kts 311°
2026-05-05 03:22 39.93009 -104.72573 8024 ft 207 kts 278°
2026-05-05 03:23 39.93055 -104.74501 8392 ft 219 kts 271°
2026-05-05 03:23 39.93057 -104.76599 8636 ft 245 kts 271°
2026-05-05 03:23 39.93077 -104.78918 9015 ft 266 kts 271°
2026-05-05 03:23 39.93111 -104.81421 9450 ft 285 kts 271°
2026-05-05 03:24 39.93143 -104.84078 9984 ft 302 kts 270°
2026-05-05 03:24 39.93172 -104.86886 10499 ft 317 kts 270°
2026-05-05 03:24 39.93204 -104.89825 11046 ft 331 kts 271°
2026-05-05 03:24 39.93248 -104.92859 11756 ft 337 kts 271°
2026-05-05 03:25 39.93335 -104.95940 12497 ft 344 kts 272°
2026-05-05 03:25 39.93423 -104.99093 13229 ft 352 kts 272°
2026-05-05 03:25 39.93495 -105.02311 14039 ft 359 kts 271°
2026-05-05 03:25 39.93563 -105.05583 14700 ft 365 kts 272°
2026-05-05 03:26 39.93638 -105.08874 15355 ft 371 kts 272°
2026-05-05 03:26 39.93714 -105.12193 16007 ft 376 kts 272°
2026-05-05 03:26 39.93791 -105.15632 16687 ft 381 kts 271°
2026-05-05 03:26 39.93865 -105.19101 17374 ft 385 kts 271°
2026-05-05 03:27 39.93959 -105.22614 18063 ft 389 kts 275°
2026-05-05 03:27 39.94251 -105.26125 18698 ft 391 kts 276°
2026-05-05 03:27 39.94526 -105.29662 19291 ft 394 kts 275°
2026-05-05 03:27 39.94797 -105.33228 19912 ft 396 kts 276°
2026-05-05 03:28 39.95077 -105.36812 20539 ft 398 kts 276°
2026-05-05 03:28 39.95361 -105.40405 21172 ft 400 kts 276°
2026-05-05 03:28 39.95646 -105.44024 21818 ft 401 kts 275°
2026-05-05 03:28 39.95929 -105.47642 22472 ft 401 kts 275°
2026-05-05 03:29 39.96211 -105.51257 23150 ft 401 kts 275°
2026-05-05 03:29 39.96491 -105.54867 23767 ft 400 kts 275°
2026-05-05 03:29 39.96769 -105.58473 24347 ft 399 kts 275°
2026-05-05 03:29 39.97038 -105.62015 24912 ft 398 kts 275°
2026-05-05 03:30 39.97310 -105.65605 25445 ft 397 kts 275°
2026-05-05 03:30 39.97485 -105.69093 26000 ft 395 kts 273°
2026-05-05 03:30 39.97673 -105.72664 26569 ft 394 kts 274°
2026-05-05 03:30 39.97868 -105.76226 27145 ft 393 kts 274°
2026-05-05 03:31 39.98047 -105.79774 27748 ft 391 kts 273°
2026-05-05 03:31 39.98217 -105.83308 28334 ft 389 kts 273°
2026-05-05 03:31 39.98390 -105.86810 28944 ft 386 kts 273°
2026-05-05 03:31 39.98565 -105.90296 29576 ft 383 kts 273°
2026-05-05 03:32 39.98735 -105.93741 30162 ft 379 kts 273°
2026-05-05 03:32 39.98898 -105.97107 30704 ft 374 kts 273°
2026-05-05 03:32 39.99061 -106.00474 31241 ft 370 kts 273°
2026-05-05 03:32 39.99222 -106.03799 31819 ft 365 kts 273°
2026-05-05 03:33 39.99380 -106.07085 32420 ft 360 kts 272°
2026-05-05 03:33 39.99534 -106.10317 33013 ft 355 kts 272°
2026-05-05 03:33 39.99685 -106.13496 33662 ft 349 kts 272°
2026-05-05 03:33 39.99832 -106.16625 34222 ft 342 kts 272°
2026-05-05 03:34 39.99976 -106.19698 34746 ft 336 kts 272°
2026-05-05 03:34 40.00116 -106.22700 35278 ft 328 kts 271°
2026-05-05 03:34 40.00253 -106.25637 35821 ft 321 kts 271°
2026-05-05 03:34 40.00385 -106.28505 36369 ft 313 kts 270°
2026-05-05 03:35 40.00514 -106.31297 36922 ft 304 kts 270°
2026-05-05 03:35 40.00637 -106.34007 37480 ft 295 kts 270°
2026-05-05 03:35 40.00756 -106.36598 38002 ft 284 kts 269°
2026-05-05 03:35 40.00870 -106.39126 38556 ft 274 kts 268°
2026-05-05 03:36 40.00979 -106.41561 38953 ft 264 kts 268°
2026-05-05 03:36 40.01084 -106.43938 38970 ft 264 kts 268°
2026-05-05 03:36 40.01188 -106.46385 38643 ft 277 kts 268°
2026-05-05 03:36 40.01300 -106.48942 38443 ft 285 kts 269°
2026-05-05 03:37 40.01418 -106.51507 38675 ft 279 kts 268°
2026-05-05 03:37 40.01531 -106.53988 39098 ft 269 kts 268°
2026-05-05 03:37 40.01634 -106.56408 39211 ft 268 kts 268°
2026-05-05 03:37 40.01736 -106.58874 38929 ft 278 kts 268°
2026-05-05 03:38 40.01845 -106.61440 38667 ft 287 kts 269°
2026-05-05 03:38 40.01958 -106.64008 38823 ft 284 kts 269°
2026-05-05 03:38 40.02072 -106.66564 39230 ft 274 kts 269°
2026-05-05 03:38 40.02174 -106.68989 39396 ft 271 kts 269°
2026-05-05 03:39 40.02276 -106.71473 39137 ft 279 kts 268°
2026-05-05 03:39 40.02380 -106.74061 38805 ft 291 kts 268°
2026-05-05 03:39 40.02494 -106.76722 38859 ft 291 kts 268°
2026-05-05 03:39 40.02607 -106.79315 39269 ft 280 kts 268°
2026-05-05 03:40 40.02712 -106.81816 39521 ft 274 kts 268°
2026-05-05 03:40 40.02777 -106.83470 39452 ft 277 kts 268°
2026-05-05 03:40 40.02877 -106.86028 39132 ft 288 kts 268°
2026-05-05 03:40 40.03021 -106.89532 39035 ft 292 kts 268°
2026-05-05 03:41 40.03131 -106.92148 39370 ft 283 kts 268°
2026-05-05 03:41 40.03235 -106.94678 39626 ft 277 kts 268°
2026-05-05 03:41 40.03332 -106.97199 39490 ft 282 kts 268°
2026-05-05 03:41 40.03397 -106.98918 39276 ft 289 kts 268°
2026-05-05 03:42 40.03502 -107.01572 39122 ft 295 kts 268°
2026-05-05 03:42 40.03611 -107.04218 39346 ft 288 kts 268°
2026-05-05 03:42 40.03716 -107.06792 39633 ft 281 kts 268°
2026-05-05 03:42 40.03811 -107.09338 39592 ft 283 kts 268°
2026-05-05 03:43 40.03908 -107.11952 39296 ft 293 kts 268°
2026-05-05 03:43 40.04012 -107.14643 39193 ft 299 kts 268°
2026-05-05 03:43 40.04119 -107.17331 39470 ft 292 kts 268°
2026-05-05 03:43 40.04222 -107.19937 39798 ft 284 kts 268°
2026-05-05 03:44 40.04316 -107.22517 39784 ft 286 kts 268°
2026-05-05 03:44 40.04411 -107.25158 39505 ft 296 kts 268°
2026-05-05 03:44 40.04513 -107.27882 39324 ft 304 kts 268°
2026-05-05 03:44 40.04617 -107.30602 39448 ft 302 kts 268°
2026-05-05 03:45 40.04720 -107.33307 39766 ft 295 kts 268°
2026-05-05 03:45 40.04817 -107.35959 39937 ft 291 kts 269°
2026-05-05 03:45 40.04911 -107.38623 39786 ft 297 kts 268°
2026-05-05 03:45 40.05008 -107.41358 39495 ft 306 kts 268°
2026-05-05 03:46 40.05212 -107.46935 39640 ft 304 kts 268°
2026-05-05 03:46 40.05310 -107.49657 39815 ft 298 kts 268°
2026-05-05 03:46 40.05403 -107.52361 39803 ft 299 kts 268°
2026-05-05 03:47 40.05497 -107.55102 39628 ft 304 kts 268°
2026-05-05 03:47 40.05594 -107.57881 39543 ft 308 kts 268°
2026-05-05 03:47 40.05692 -107.60668 39647 ft 305 kts 268°
2026-05-05 03:47 40.05788 -107.63415 39835 ft 300 kts 268°
2026-05-05 03:48 40.05880 -107.66136 39848 ft 300 kts 268°
2026-05-05 03:48 40.05971 -107.68881 39700 ft 306 kts 268°
2026-05-05 03:48 40.06159 -107.74452 39748 ft 307 kts 268°
2026-05-05 03:49 40.06252 -107.77221 39914 ft 304 kts 268°
2026-05-05 03:49 40.06341 -107.79975 39899 ft 305 kts 268°
2026-05-05 03:49 40.06522 -107.85605 39803 ft 313 kts 268°
2026-05-05 03:50 40.06616 -107.88437 39945 ft 310 kts 268°
2026-05-05 03:50 40.06830 -107.91241 40054 ft 311 kts 274°
2026-05-05 03:50 40.08011 -107.96718 39739 ft 328 kts 283°
2026-05-05 03:51 40.09664 -108.02230 39921 ft 324 kts 282°
2026-05-05 03:51 40.11309 -108.07750 39893 ft 327 kts 282°
2026-05-05 03:52 40.12978 -108.13341 39871 ft 332 kts 283°
2026-05-05 03:52 40.14657 -108.18986 39865 ft 334 kts 283°
2026-05-05 03:53 40.16339 -108.24654 39861 ft 339 kts 283°
2026-05-05 03:53 40.18054 -108.30440 39855 ft 343 kts 283°
2026-05-05 03:54 40.19785 -108.36295 39857 ft 347 kts 283°
2026-05-05 03:54 40.21534 -108.42227 39858 ft 351 kts 283°
2026-05-05 03:55 40.23296 -108.48217 39834 ft 358 kts 283°
2026-05-05 03:55 40.25096 -108.54344 39860 ft 363 kts 283°
2026-05-05 03:56 40.26920 -108.60572 39839 ft 369 kts 284°
2026-05-05 03:56 40.28769 -108.66900 39837 ft 375 kts 284°
2026-05-05 03:57 40.30645 -108.73339 39844 ft 382 kts 284°
2026-05-05 03:57 40.32541 -108.79855 39835 ft 388 kts 284°
2026-05-05 03:58 40.34475 -108.86525 39837 ft 394 kts 284°
2026-05-05 03:58 40.36437 -108.93307 39839 ft 401 kts 284°
2026-05-05 03:59 40.38427 -109.00203 39830 ft 407 kts 284°
2026-05-05 03:59 40.40443 -109.07210 39838 ft 414 kts 285°
2026-05-05 04:00 40.42493 -109.14350 39856 ft 421 kts 285°
2026-05-05 04:00 40.44568 -109.21604 39877 ft 428 kts 285°
2026-05-05 04:01 40.46659 -109.28930 39908 ft 433 kts 285°
2026-05-05 04:01 40.48775 -109.36358 39922 ft 434 kts 285°
2026-05-05 04:02 40.50884 -109.43792 39968 ft 433 kts 285°
2026-05-05 04:02 40.52990 -109.51241 39953 ft 437 kts 285°
2026-05-05 04:03 40.55104 -109.58728 39942 ft 441 kts 285°
2026-05-05 04:03 40.57233 -109.66298 39913 ft 440 kts 285°
2026-05-05 04:04 40.59357 -109.73882 39805 ft 440 kts 285°
2026-05-05 04:04 40.61472 -109.81431 39833 ft 441 kts 285°
2026-05-05 04:05 40.63586 -109.89023 39834 ft 442 kts 285°
2026-05-05 04:05 40.65691 -109.96591 39860 ft 443 kts 285°
2026-05-05 04:06 40.67812 -110.04244 39853 ft 442 kts 285°
2026-05-05 04:06 40.69914 -110.11852 39874 ft 442 kts 285°
2026-05-05 04:07 40.72025 -110.19522 39871 ft 447 kts 285°
2026-05-05 04:07 40.74131 -110.27182 39889 ft 448 kts 285°
2026-05-05 04:08 40.76250 -110.34922 39907 ft 448 kts 285°
2026-05-05 04:08 40.78354 -110.42633 39901 ft 447 kts 285°
2026-05-05 04:09 40.80451 -110.50337 39909 ft 446 kts 285°
2026-05-05 04:09 40.82547 -110.58067 39907 ft 448 kts 285°
2026-05-05 04:10 40.84647 -110.65831 39921 ft 449 kts 285°
2026-05-05 04:10 40.86739 -110.73587 39914 ft 447 kts 285°
2026-05-05 04:11 40.88825 -110.81355 39897 ft 449 kts 285°
2026-05-05 04:11 40.90904 -110.89112 39899 ft 452 kts 285°
2026-05-05 04:12 40.93002 -110.96967 39900 ft 453 kts 285°
2026-05-05 04:12 40.95092 -111.04819 39910 ft 452 kts 285°
2026-05-05 04:13 40.97174 -111.12662 39911 ft 452 kts 285°
2026-05-05 04:13 40.99252 -111.20524 39897 ft 454 kts 285°
2026-05-05 04:14 41.01341 -111.28444 39898 ft 455 kts 285°
2026-05-05 04:14 41.03416 -111.36330 39859 ft 451 kts 285°
2026-05-05 04:15 41.05463 -111.44154 39843 ft 450 kts 285°
2026-05-05 04:15 41.07504 -111.51967 39838 ft 452 kts 285°
2026-05-05 04:16 41.09569 -111.59897 39849 ft 451 kts 285°
2026-05-05 04:16 41.11594 -111.67704 39868 ft 451 kts 284°
2026-05-05 04:17 41.13636 -111.75598 39887 ft 452 kts 284°
2026-05-05 04:17 41.15662 -111.83455 39896 ft 450 kts 284°
2026-05-05 04:18 41.17691 -111.91358 39917 ft 453 kts 284°
2026-05-05 04:18 41.19715 -111.99252 39895 ft 451 kts 284°
2026-05-05 04:19 41.21725 -112.07137 39895 ft 450 kts 283°
2026-05-05 04:19 41.22865 -112.15141 39894 ft 445 kts 273°
2026-05-05 04:20 41.23586 -112.23327 39848 ft 450 kts 274°
2026-05-05 04:20 41.24292 -112.31602 39823 ft 450 kts 273°
2026-05-05 04:21 41.24997 -112.39864 39782 ft 449 kts 273°
2026-05-05 04:21 41.25692 -112.48103 39737 ft 449 kts 273°
2026-05-05 04:22 41.26381 -112.56346 39732 ft 452 kts 273°
2026-05-05 04:22 41.27071 -112.64662 39744 ft 452 kts 273°
2026-05-05 04:23 41.27754 -112.72983 39750 ft 452 kts 273°
2026-05-05 04:23 41.28432 -112.81306 39742 ft 454 kts 273°
2026-05-05 04:24 41.29108 -112.89685 39759 ft 456 kts 273°
2026-05-05 04:25 41.30112 -113.02269 39755 ft 459 kts 274°
2026-05-05 04:25 41.30778 -113.10713 39754 ft 458 kts 274°
2026-05-05 04:26 41.31439 -113.19177 39751 ft 462 kts 274°
2026-05-05 04:26 41.32098 -113.27693 39760 ft 462 kts 274°
2026-05-05 04:27 41.32748 -113.36186 39762 ft 461 kts 273°
2026-05-05 04:27 41.33392 -113.44677 39758 ft 461 kts 274°
2026-05-05 04:28 41.33925 -113.51766 39760 ft 465 kts 274°
2026-05-05 04:28 41.34668 -113.61755 39756 ft 467 kts 274°
2026-05-05 04:29 41.35197 -113.68928 39775 ft 469 kts 274°
2026-05-05 04:29 41.35827 -113.77565 39774 ft 469 kts 274°
2026-05-05 04:30 41.36140 -113.86262 39806 ft 470 kts 263°
2026-05-05 04:30 41.35545 -113.94963 39788 ft 471 kts 263°
2026-05-05 04:31 41.34928 -114.03640 39800 ft 470 kts 264°
2026-05-05 04:31 41.34322 -114.12263 39787 ft 472 kts 263°
2026-05-05 04:32 41.33692 -114.20995 39798 ft 474 kts 263°
2026-05-05 04:32 41.33061 -114.29726 39805 ft 474 kts 263°
2026-05-05 04:33 41.32420 -114.38463 39804 ft 473 kts 263°
2026-05-05 04:33 41.31773 -114.47210 39804 ft 477 kts 263°
2026-05-05 04:34 41.31120 -114.55942 39817 ft 477 kts 263°
2026-05-05 04:34 41.30455 -114.64735 39824 ft 477 kts 264°
2026-05-05 04:35 41.29780 -114.73577 39815 ft 483 kts 264°
2026-05-05 04:35 41.29094 -114.82472 39816 ft 483 kts 264°
2026-05-05 04:36 41.28403 -114.91341 39809 ft 481 kts 264°
2026-05-05 04:36 41.27708 -115.00179 39815 ft 480 kts 263°
2026-05-05 04:37 41.27003 -115.09042 39808 ft 485 kts 264°
2026-05-05 04:37 41.26289 -115.17937 39822 ft 487 kts 264°
2026-05-05 04:38 41.25562 -115.26905 39813 ft 486 kts 264°
2026-05-05 04:38 41.24832 -115.35824 39815 ft 486 kts 264°
2026-05-05 04:39 41.24096 -115.44729 39818 ft 489 kts 264°
2026-05-05 04:39 41.23346 -115.53723 39837 ft 489 kts 263°
2026-05-05 04:40 41.22589 -115.62709 39826 ft 489 kts 263°
2026-05-05 04:40 41.21826 -115.71687 39832 ft 490 kts 263°
2026-05-05 04:41 41.21053 -115.80696 39838 ft 490 kts 263°
2026-05-05 04:41 41.20278 -115.89642 39845 ft 490 kts 263°
2026-05-05 04:42 41.19487 -115.98680 39827 ft 495 kts 264°
2026-05-05 04:42 41.18684 -116.07791 39832 ft 498 kts 264°
2026-05-05 04:43 41.17871 -116.16915 39843 ft 496 kts 264°
2026-05-05 04:43 41.17058 -116.25962 39838 ft 496 kts 264°
2026-05-05 04:44 41.16232 -116.35085 39841 ft 500 kts 264°
2026-05-05 04:44 41.15394 -116.44249 39831 ft 500 kts 264°
2026-05-05 04:45 41.14548 -116.53410 39838 ft 499 kts 264°
2026-05-05 04:45 41.13696 -116.62563 39835 ft 502 kts 263°
2026-05-05 04:46 41.12832 -116.71757 39836 ft 503 kts 263°
2026-05-05 04:46 41.11961 -116.80955 39828 ft 503 kts 263°
2026-05-05 04:47 41.11082 -116.90154 39837 ft 503 kts 263°
2026-05-05 04:47 41.10193 -116.99374 39829 ft 504 kts 263°
2026-05-05 04:48 41.09303 -117.08535 39839 ft 504 kts 263°
2026-05-05 04:48 41.08400 -117.17744 39837 ft 504 kts 263°
2026-05-05 04:49 41.07485 -117.27009 39832 ft 509 kts 264°
2026-05-05 04:49 41.06558 -117.36304 39850 ft 509 kts 263°
2026-05-05 04:50 41.05624 -117.45596 39856 ft 508 kts 263°
2026-05-05 04:50 41.04682 -117.54888 39872 ft 509 kts 263°
2026-05-05 04:51 41.03732 -117.64192 39903 ft 510 kts 263°
2026-05-05 04:51 41.02779 -117.73445 39914 ft 510 kts 263°
2026-05-05 04:52 41.01811 -117.82763 39923 ft 510 kts 263°
2026-05-05 04:52 41.00836 -117.92072 39915 ft 510 kts 263°
2026-05-05 04:53 41.00010 -118.01390 39913 ft 508 kts 273°
2026-05-05 04:53 41.00089 -118.10766 39865 ft 509 kts 272°
2026-05-05 04:54 41.00158 -118.20151 39830 ft 510 kts 272°
2026-05-05 04:54 41.00218 -118.29485 39824 ft 512 kts 272°
2026-05-05 04:55 41.00272 -118.38944 39833 ft 515 kts 272°
2026-05-05 04:55 41.00318 -118.48438 39821 ft 516 kts 272°
2026-05-05 04:56 41.00356 -118.57925 39828 ft 514 kts 272°
2026-05-05 04:56 41.00387 -118.67398 39824 ft 514 kts 272°
2026-05-05 04:57 41.00410 -118.76873 39830 ft 515 kts 272°
2026-05-05 04:57 41.00425 -118.86304 39830 ft 516 kts 272°
2026-05-05 04:58 41.00432 -118.95803 39824 ft 516 kts 272°
2026-05-05 04:58 41.00432 -119.05330 39823 ft 518 kts 272°
2026-05-05 04:59 41.00423 -119.14869 39834 ft 518 kts 272°
2026-05-05 04:59 41.00407 -119.24424 39824 ft 518 kts 272°
2026-05-05 05:00 41.00383 -119.33905 39827 ft 519 kts 272°
2026-05-05 05:00 41.00351 -119.43470 39844 ft 519 kts 272°
2026-05-05 05:01 41.00311 -119.53011 39848 ft 518 kts 271°
2026-05-05 05:01 41.00263 -119.62534 39837 ft 517 kts 272°
2026-05-05 05:02 41.00209 -119.72125 39843 ft 523 kts 272°
2026-05-05 05:02 41.00144 -119.81763 39850 ft 523 kts 272°
2026-05-05 05:03 41.00072 -119.91382 39847 ft 522 kts 272°
2026-05-05 05:03 40.99952 -120.00946 39853 ft 523 kts 266°
2026-05-05 05:04 40.99368 -120.10568 39879 ft 525 kts 268°
2026-05-05 05:04 40.98795 -120.20193 39904 ft 524 kts 268°
2026-05-05 05:05 40.98199 -120.29841 39903 ft 525 kts 268°
2026-05-05 05:05 40.97608 -120.39416 39910 ft 526 kts 268°
2026-05-05 05:06 40.96996 -120.49130 39942 ft 532 kts 268°
2026-05-05 05:06 40.96374 -120.58888 39946 ft 531 kts 268°
2026-05-05 05:07 40.95748 -120.68581 39961 ft 531 kts 268°
2026-05-05 05:07 40.95108 -120.78350 39975 ft 531 kts 267°
2026-05-05 05:08 40.94463 -120.88091 39976 ft 532 kts 267°
2026-05-05 05:08 40.93808 -120.97831 39986 ft 531 kts 267°
2026-05-05 05:09 40.93150 -121.07509 39989 ft 531 kts 267°
2026-05-05 05:09 40.92479 -121.17258 39988 ft 531 kts 267°
2026-05-05 05:10 40.91799 -121.27011 39984 ft 533 kts 267°
2026-05-05 05:10 40.91114 -121.36719 39992 ft 534 kts 267°
2026-05-05 05:11 40.90415 -121.46512 39995 ft 535 kts 267°
2026-05-05 05:11 40.89708 -121.56285 40006 ft 534 kts 267°
2026-05-05 05:12 40.88992 -121.66068 40023 ft 534 kts 267°
2026-05-05 05:12 40.88269 -121.75845 40020 ft 536 kts 267°
2026-05-05 05:13 40.87534 -121.85662 40038 ft 537 kts 267°
2026-05-05 05:13 40.86791 -121.95469 40047 ft 536 kts 267°
2026-05-05 05:14 40.86041 -122.05259 40035 ft 536 kts 267°
2026-05-05 05:14 40.85281 -122.15086 40048 ft 540 kts 267°
2026-05-05 05:15 40.84507 -122.24950 40049 ft 540 kts 267°
2026-05-05 05:15 40.83727 -122.34800 40042 ft 538 kts 267°
2026-05-05 05:16 40.82945 -122.44577 40040 ft 540 kts 266°
2026-05-05 05:16 40.82144 -122.54466 40028 ft 542 kts 266°
2026-05-05 05:17 40.81473 -122.62667 40032 ft 542 kts 266°
2026-05-05 05:17 40.80655 -122.72571 40030 ft 541 kts 266°
2026-05-05 05:18 40.79831 -122.82464 40038 ft 543 kts 266°
2026-05-05 05:18 40.78999 -122.92335 40034 ft 545 kts 266°
2026-05-05 05:19 40.78153 -123.02271 40038 ft 545 kts 266°
2026-05-05 05:19 40.77298 -123.12204 40044 ft 544 kts 266°
2026-05-05 05:20 40.76435 -123.22135 40063 ft 544 kts 266°
2026-05-05 05:20 40.75563 -123.32065 40077 ft 544 kts 266°
2026-05-05 05:21 40.74684 -123.41976 40075 ft 544 kts 266°
2026-05-05 05:21 40.73797 -123.51884 40093 ft 543 kts 266°
2026-05-05 05:22 40.72902 -123.61775 40096 ft 543 kts 266°
2026-05-05 05:22 40.72004 -123.71616 40108 ft 543 kts 266°
2026-05-05 05:23 40.71089 -123.81530 40122 ft 545 kts 266°
2026-05-05 05:23 40.70162 -123.91500 40131 ft 547 kts 265°
2026-05-05 05:24 40.69232 -124.01395 40133 ft 546 kts 265°
2026-05-05 05:24 40.68291 -124.11313 40136 ft 546 kts 265°
2026-05-05 05:25 40.67341 -124.21247 40135 ft 546 kts 266°
2026-05-05 05:25 40.67087 -124.31178 40134 ft 542 kts 273°
2026-05-05 05:26 40.67034 -124.41124 40132 ft 543 kts 273°
2026-05-05 05:26 40.66965 -124.51018 40121 ft 544 kts 273°
2026-05-05 05:27 40.66892 -124.61009 40129 ft 545 kts 272°
2026-05-05 05:27 40.66762 -124.76008 40119 ft 545 kts 272°
2026-05-05 05:28 40.66666 -124.85993 40122 ft 545 kts 272°
2026-05-05 05:28 40.66561 -124.95903 40120 ft 545 kts 272°
2026-05-05 05:29 40.66448 -125.05878 40118 ft 545 kts 272°
2026-05-05 05:29 40.66326 -125.15873 40116 ft 547 kts 272°
2026-05-05 05:30 40.66194 -125.25894 40124 ft 547 kts 272°
2026-05-05 05:30 40.66054 -125.35921 40129 ft 547 kts 272°
2026-05-05 05:31 40.65906 -125.45891 40120 ft 547 kts 272°
2026-05-05 05:31 40.65749 -125.55900 40116 ft 546 kts 272°
2026-05-05 05:32 40.65584 -125.65900 40117 ft 546 kts 272°
2026-05-05 05:32 40.65409 -125.75943 40119 ft 549 kts 271°
2026-05-05 05:33 40.65225 -125.85989 40120 ft 548 kts 271°
2026-05-05 05:33 40.65033 -125.96017 40124 ft 546 kts 271°
2026-05-05 05:34 40.64833 -126.06008 40118 ft 546 kts 271°
2026-05-05 05:34 40.64626 -126.15945 40114 ft 546 kts 271°
2026-05-05 05:35 40.64408 -126.25949 40114 ft 546 kts 271°
2026-05-05 05:35 40.64182 -126.35943 40118 ft 546 kts 271°
2026-05-05 05:36 40.63948 -126.45924 40116 ft 546 kts 271°
2026-05-05 05:36 40.63704 -126.55934 40117 ft 545 kts 271°
2026-05-05 05:37 40.63454 -126.65857 40118 ft 545 kts 271°
2026-05-05 05:37 40.63194 -126.75830 40123 ft 545 kts 271°
2026-05-05 05:38 40.62926 -126.85804 40127 ft 546 kts 271°
2026-05-05 05:38 40.62647 -126.95839 40135 ft 548 kts 270°
2026-05-05 05:39 40.62309 -127.00835 40151 ft 549 kts 259°
2026-05-05 05:39 40.61432 -127.05747 40144 ft 551 kts 257°
2026-05-05 05:39 40.59503 -127.15514 40142 ft 552 kts 257°
2026-05-05 05:40 40.57615 -127.25233 40145 ft 552 kts 257°
2026-05-05 05:40 40.55690 -127.34999 40141 ft 551 kts 257°
2026-05-05 05:41 40.53767 -127.44736 40148 ft 550 kts 257°
2026-05-05 05:41 40.51834 -127.54477 40144 ft 550 kts 256°
2026-05-05 05:42 40.49896 -127.64187 40146 ft 549 kts 256°
2026-05-05 05:42 40.47954 -127.73887 40121 ft 548 kts 256°
2026-05-05 05:43 40.46015 -127.83510 40141 ft 550 kts 256°
2026-05-05 05:43 40.44047 -127.93243 40152 ft 551 kts 256°
2026-05-05 05:44 40.42070 -128.02965 40144 ft 550 kts 256°
2026-05-05 05:44 40.40100 -128.12615 40154 ft 550 kts 256°
2026-05-05 05:45 40.38110 -128.22310 40157 ft 550 kts 256°
2026-05-05 05:45 40.36113 -128.32000 40160 ft 550 kts 256°
2026-05-05 05:46 40.34108 -128.41681 40157 ft 550 kts 256°
2026-05-05 05:46 40.32094 -128.51364 40152 ft 550 kts 256°
2026-05-05 05:47 40.30087 -128.60964 40157 ft 549 kts 256°
2026-05-05 05:47 40.28066 -128.70592 40155 ft 547 kts 255°
2026-05-05 05:48 40.26041 -128.80195 40159 ft 548 kts 255°
2026-05-05 05:48 40.24004 -128.89811 40166 ft 547 kts 255°
2026-05-05 05:49 40.21963 -128.99400 40168 ft 546 kts 255°
2026-05-05 05:49 40.19915 -129.08977 40166 ft 546 kts 255°
2026-05-05 05:50 40.17864 -129.18532 40164 ft 545 kts 255°
2026-05-05 05:50 40.15814 -129.28038 40170 ft 547 kts 255°
2026-05-05 05:51 40.13726 -129.37676 40181 ft 548 kts 255°
2026-05-05 05:51 40.11652 -129.47208 40185 ft 548 kts 255°
2026-05-05 05:52 40.09561 -129.56773 40180 ft 546 kts 255°
2026-05-05 05:52 40.07472 -129.66294 40177 ft 545 kts 255°
2026-05-05 05:53 40.05373 -129.75815 40181 ft 546 kts 254°
2026-05-05 05:53 40.03275 -129.85290 40185 ft 545 kts 254°
2026-05-05 05:54 40.01161 -129.94799 40172 ft 545 kts 254°
2026-05-05 05:54 39.98342 -130.03922 40204 ft 543 kts 240°
2026-05-05 05:55 39.94642 -130.12530 40201 ft 544 kts 239°
2026-05-05 05:55 39.90977 -130.21096 40201 ft 544 kts 240°
2026-05-05 05:56 39.87282 -130.29693 40208 ft 543 kts 239°
2026-05-05 05:56 39.83588 -130.38256 40210 ft 542 kts 239°
2026-05-05 05:57 39.79901 -130.46793 40203 ft 540 kts 239°
2026-05-05 05:57 39.76198 -130.55332 40193 ft 541 kts 239°
2026-05-05 05:58 39.72506 -130.63831 40193 ft 540 kts 239°
2026-05-05 05:58 39.68810 -130.72307 40196 ft 539 kts 239°
2026-05-05 05:59 39.65140 -130.80709 40205 ft 537 kts 239°
2026-05-05 05:59 39.61439 -130.89152 40209 ft 538 kts 239°
2026-05-05 06:00 39.57726 -130.97609 40220 ft 541 kts 239°
2026-05-05 06:00 39.53988 -131.06085 40223 ft 541 kts 239°
2026-05-05 06:01 39.50247 -131.14556 40217 ft 541 kts 239°
2026-05-05 06:01 39.46510 -131.22991 40215 ft 539 kts 239°
2026-05-05 06:02 39.42794 -131.31357 40213 ft 537 kts 239°
2026-05-05 06:02 39.39696 -131.38314 40210 ft 537 kts 239°
2026-05-05 06:03 39.35349 -131.48051 40226 ft 536 kts 239°
2026-05-05 06:03 39.32226 -131.55027 40221 ft 534 kts 239°
2026-05-05 06:04 39.28498 -131.63334 40220 ft 535 kts 239°
2026-05-05 06:04 39.24788 -131.71581 40227 ft 534 kts 239°
2026-05-05 06:05 39.21062 -131.79839 40230 ft 532 kts 238°
2026-05-05 06:05 39.17331 -131.88088 40231 ft 532 kts 238°
2026-05-05 06:06 39.13601 -131.96313 40240 ft 530 kts 238°
2026-05-05 06:06 39.09888 -132.04481 40239 ft 529 kts 238°
2026-05-05 06:07 39.06158 -132.12661 40235 ft 529 kts 238°
2026-05-05 06:07 39.02463 -132.20747 40242 ft 526 kts 238°
2026-05-05 06:08 38.98750 -132.28851 40244 ft 526 kts 238°
2026-05-05 06:08 38.95027 -132.36954 40234 ft 526 kts 238°
2026-05-05 06:09 38.91315 -132.45015 40239 ft 523 kts 238°
2026-05-05 06:09 38.87611 -132.53036 40240 ft 523 kts 238°
2026-05-05 06:10 38.83891 -132.61074 40254 ft 522 kts 238°
2026-05-05 06:10 38.80199 -132.69030 40251 ft 520 kts 238°
2026-05-05 06:11 38.76495 -132.76991 40249 ft 520 kts 238°
2026-05-05 06:11 38.72776 -132.84964 40252 ft 520 kts 239°
2026-05-05 06:12 38.69098 -132.92835 40247 ft 517 kts 239°
2026-05-05 06:12 38.65390 -133.00744 40249 ft 518 kts 239°
2026-05-05 06:13 38.61682 -133.08636 40259 ft 517 kts 239°
2026-05-05 06:13 38.57975 -133.16508 40263 ft 515 kts 239°
2026-05-05 06:14 38.54272 -133.24350 40262 ft 515 kts 239°
2026-05-05 06:14 38.50559 -133.32195 40262 ft 515 kts 239°
2026-05-05 06:15 38.46843 -133.40027 40263 ft 516 kts 239°
2026-05-05 06:15 38.43140 -133.47811 40265 ft 515 kts 239°
2026-05-05 06:16 38.39424 -133.55608 40270 ft 513 kts 239°
2026-05-05 06:16 38.35710 -133.63378 40269 ft 513 kts 239°
2026-05-05 06:17 38.32012 -133.71096 40273 ft 511 kts 239°
2026-05-05 06:17 38.28311 -133.78805 40275 ft 509 kts 239°
2026-05-05 06:18 38.24610 -133.86493 40276 ft 510 kts 239°
2026-05-05 06:18 38.20891 -133.94199 40277 ft 508 kts 239°
2026-05-05 06:19 38.17198 -134.01837 40274 ft 507 kts 239°
2026-05-05 06:19 38.13522 -134.09418 40279 ft 507 kts 239°
2026-05-05 06:20 38.09824 -134.17030 40283 ft 504 kts 240°
2026-05-05 06:20 38.06137 -134.24601 40280 ft 504 kts 240°
2026-05-05 06:21 38.02444 -134.32165 40276 ft 504 kts 240°
2026-05-05 06:21 37.98780 -134.39653 40285 ft 501 kts 240°
2026-05-05 06:22 37.95098 -134.47161 40283 ft 502 kts 240°
2026-05-05 06:22 37.91403 -134.54677 40287 ft 502 kts 240°
2026-05-05 06:23 37.87708 -134.62177 40295 ft 501 kts 240°
2026-05-05 06:23 37.84017 -134.69651 40293 ft 500 kts 240°
2026-05-05 06:24 37.80338 -134.77083 40292 ft 498 kts 240°
2026-05-05 06:24 37.76662 -134.84497 40292 ft 498 kts 240°
2026-05-05 06:25 37.72972 -134.91916 40300 ft 499 kts 240°
2026-05-05 06:25 37.69274 -134.99335 40301 ft 497 kts 241°
2026-05-05 06:26 37.65603 -135.06689 40303 ft 495 kts 241°
2026-05-05 06:26 37.61923 -135.14041 40302 ft 495 kts 241°
2026-05-05 06:27 37.56415 -135.25015 40305 ft 493 kts 241°
2026-05-05 06:28 37.52760 -135.32275 40307 ft 493 kts 241°
2026-05-05 06:28 37.49081 -135.39570 40311 ft 493 kts 241°
2026-05-05 06:29 37.45398 -135.46854 40309 ft 493 kts 241°
2026-05-05 06:29 37.41708 -135.54138 40314 ft 493 kts 241°
2026-05-05 06:30 37.38020 -135.61400 40312 ft 492 kts 241°
2026-05-05 06:30 37.34360 -135.68593 40303 ft 491 kts 241°
2026-05-05 06:31 37.30668 -135.75834 40297 ft 492 kts 241°
2026-05-05 06:31 37.26975 -135.83056 40318 ft 491 kts 241°
2026-05-05 06:32 37.23292 -135.90249 40312 ft 489 kts 241°
2026-05-05 06:32 37.19602 -135.97439 40318 ft 489 kts 240°
2026-05-05 06:33 37.15942 -136.04552 40318 ft 488 kts 240°
2026-05-05 06:33 37.12258 -136.11700 40319 ft 489 kts 240°
2026-05-05 06:34 37.08560 -136.18858 40318 ft 488 kts 240°
2026-05-05 06:34 37.04873 -136.25979 40318 ft 487 kts 240°
2026-05-05 06:35 37.01186 -136.33085 40320 ft 486 kts 240°
2026-05-05 06:35 36.97525 -136.40127 40313 ft 484 kts 239°
2026-05-05 06:36 36.93848 -136.47184 40320 ft 483 kts 239°
2026-05-05 06:36 36.90170 -136.54230 40310 ft 484 kts 239°
2026-05-05 06:37 36.86498 -136.61247 40332 ft 481 kts 239°
2026-05-05 06:37 36.82832 -136.68241 40330 ft 481 kts 239°
2026-05-05 06:38 36.79165 -136.75220 40323 ft 481 kts 239°
2026-05-05 06:38 36.75520 -136.82143 40323 ft 480 kts 239°
2026-05-05 06:39 36.71844 -136.89112 40329 ft 480 kts 239°
2026-05-05 06:39 36.68171 -136.96061 40336 ft 480 kts 239°
2026-05-05 06:40 36.64495 -137.03000 40334 ft 479 kts 239°
2026-05-05 06:40 36.60848 -137.09870 40330 ft 479 kts 239°
2026-05-05 06:41 36.57171 -137.16784 40337 ft 478 kts 239°
2026-05-05 06:41 36.53502 -137.23668 40339 ft 477 kts 239°
2026-05-05 06:42 36.49827 -137.30551 40345 ft 478 kts 239°
2026-05-05 06:42 36.46139 -137.37442 40347 ft 479 kts 239°
2026-05-05 06:43 36.42440 -137.44340 40344 ft 480 kts 239°
2026-05-05 06:43 36.38751 -137.51207 40354 ft 479 kts 239°
2026-05-05 06:44 36.35061 -137.58060 40344 ft 476 kts 239°
2026-05-05 06:44 36.31381 -137.64882 40340 ft 475 kts 239°
2026-05-05 06:45 36.27711 -137.71672 40342 ft 474 kts 239°
2026-05-05 06:45 36.24025 -137.78479 40351 ft 476 kts 239°
2026-05-05 06:46 36.20328 -137.85290 40358 ft 477 kts 238°
2026-05-05 06:46 36.16615 -137.92119 40361 ft 477 kts 239°
2026-05-05 06:47 36.12927 -137.98888 40368 ft 476 kts 239°
2026-05-05 06:47 36.09224 -138.05670 40361 ft 475 kts 238°
2026-05-05 06:48 36.05532 -138.12420 40356 ft 473 kts 239°
2026-05-05 06:48 36.01842 -138.19154 40355 ft 473 kts 239°
2026-05-05 06:49 35.98141 -138.25892 40351 ft 474 kts 239°
2026-05-05 06:49 35.94448 -138.32604 40352 ft 472 kts 239°
2026-05-05 06:50 35.91382 -138.38167 40350 ft 471 kts 239°
2026-05-05 06:50 35.87690 -138.44855 40345 ft 472 kts 239°
2026-05-05 06:51 35.83999 -138.51525 40367 ft 470 kts 239°
2026-05-05 06:51 35.80305 -138.58190 40366 ft 470 kts 239°
2026-05-05 06:52 35.76611 -138.64841 40358 ft 470 kts 239°
2026-05-05 06:52 35.72943 -138.71433 40358 ft 468 kts 239°
2026-05-05 06:53 35.69256 -138.78047 40359 ft 468 kts 239°
2026-05-05 06:53 35.65562 -138.84660 40359 ft 469 kts 239°
2026-05-05 06:54 35.61858 -138.91279 40362 ft 470 kts 239°
2026-05-05 06:54 35.58167 -138.97861 40367 ft 471 kts 239°
2026-05-05 06:55 35.54442 -139.04493 40363 ft 471 kts 239°
2026-05-05 06:55 35.50731 -139.11086 40364 ft 468 kts 239°
2026-05-05 06:56 35.47026 -139.17656 40361 ft 467 kts 239°
2026-05-05 06:56 35.43322 -139.24213 40355 ft 468 kts 239°
2026-05-05 06:57 35.39629 -139.30737 40364 ft 469 kts 239°
2026-05-05 06:57 35.35896 -139.37320 40367 ft 470 kts 239°
2026-05-05 06:58 35.32164 -139.43889 40366 ft 470 kts 239°
2026-05-05 06:58 35.28429 -139.50450 40368 ft 469 kts 239°
2026-05-05 06:59 35.24701 -139.56988 40366 ft 468 kts 239°
2026-05-05 06:59 35.20970 -139.63519 40370 ft 468 kts 240°
2026-05-05 07:00 35.17231 -139.70052 40372 ft 470 kts 240°
2026-05-05 07:00 35.13472 -139.76606 40375 ft 472 kts 240°
2026-05-05 07:01 35.09729 -139.83119 40365 ft 471 kts 240°
2026-05-05 07:01 35.05957 -139.89675 40367 ft 471 kts 239°
2026-05-05 07:02 35.02184 -139.96216 40366 ft 471 kts 239°
2026-05-05 07:02 34.98422 -140.02759 40359 ft 471 kts 240°
2026-05-05 07:03 34.94765 -140.09372 40367 ft 471 kts 240°
2026-05-05 07:03 34.91035 -140.15974 40371 ft 471 kts 240°
2026-05-05 07:04 34.87359 -140.22525 40368 ft 472 kts 240°
2026-05-05 07:04 34.83636 -140.29125 40372 ft 472 kts 240°
2026-05-05 07:05 34.79917 -140.35713 40370 ft 472 kts 240°
2026-05-05 07:05 34.76191 -140.42300 40374 ft 472 kts 240°
2026-05-05 07:06 34.72470 -140.48864 40369 ft 470 kts 240°
2026-05-05 07:06 34.68759 -140.55400 40366 ft 469 kts 240°
2026-05-05 07:07 34.65046 -140.61928 40370 ft 469 kts 240°
2026-05-05 07:07 34.61352 -140.68410 40375 ft 470 kts 240°
2026-05-05 07:08 34.57632 -140.74927 40374 ft 469 kts 240°
2026-05-05 07:08 34.53907 -140.81439 40374 ft 469 kts 240°
2026-05-05 07:09 34.50181 -140.87943 40366 ft 469 kts 240°
2026-05-05 07:09 34.46483 -140.94383 40370 ft 467 kts 240°
2026-05-05 07:10 34.42771 -141.00841 40367 ft 467 kts 240°
2026-05-05 07:10 34.39043 -141.07311 40364 ft 468 kts 240°
2026-05-05 07:11 34.35305 -141.13788 40374 ft 469 kts 240°
2026-05-05 07:11 34.31559 -141.20267 40377 ft 470 kts 240°
2026-05-05 07:12 34.27835 -141.26695 40380 ft 469 kts 240°
2026-05-05 07:12 34.24087 -141.33155 40381 ft 469 kts 240°
2026-05-05 07:13 34.20344 -141.39592 40382 ft 466 kts 240°
2026-05-05 07:13 34.16618 -141.45992 40377 ft 465 kts 240°
2026-05-05 07:14 34.12915 -141.52340 40366 ft 465 kts 240°
2026-05-05 07:14 34.09176 -141.58739 40387 ft 467 kts 239°
2026-05-05 07:15 34.05435 -141.65126 40378 ft 464 kts 239°
2026-05-05 07:15 34.01708 -141.71483 40354 ft 463 kts 240°
2026-05-05 07:16 33.97974 -141.77839 40371 ft 466 kts 239°
2026-05-05 07:16 33.94226 -141.84205 40386 ft 464 kts 239°
2026-05-05 07:17 33.90517 -141.90497 40384 ft 462 kts 239°
2026-05-05 07:17 33.86792 -141.96805 40373 ft 463 kts 239°
2026-05-05 07:18 33.83054 -142.03124 40385 ft 464 kts 239°
2026-05-05 07:18 33.79308 -142.09443 40381 ft 462 kts 239°
2026-05-05 07:19 33.75582 -142.15721 40370 ft 461 kts 239°
2026-05-05 07:19 33.71846 -142.22003 40367 ft 462 kts 239°
2026-05-05 07:20 33.68093 -142.28304 40374 ft 464 kts 239°
2026-05-05 07:20 33.64355 -142.34565 40380 ft 461 kts 239°
2026-05-05 07:21 33.60620 -142.40816 40364 ft 461 kts 239°
2026-05-05 07:21 33.56859 -142.47097 40372 ft 464 kts 239°
2026-05-05 07:22 33.53092 -142.53377 40377 ft 463 kts 238°
2026-05-05 07:22 33.49363 -142.59581 40354 ft 460 kts 239°
2026-05-05 07:23 33.45615 -142.65812 40359 ft 462 kts 239°
2026-05-05 07:23 33.41848 -142.72059 40364 ft 463 kts 238°
2026-05-05 07:24 33.38067 -142.78320 40376 ft 463 kts 238°
2026-05-05 07:24 33.34298 -142.84549 40363 ft 461 kts 238°
2026-05-05 07:25 33.30537 -142.90758 40363 ft 461 kts 238°
2026-05-05 07:25 33.26775 -142.96954 40357 ft 460 kts 238°
2026-05-05 07:26 33.23008 -143.03151 40344 ft 460 kts 238°
2026-05-05 07:26 33.19270 -143.09289 40364 ft 460 kts 238°
2026-05-05 07:27 33.15498 -143.15473 40366 ft 461 kts 238°
2026-05-05 07:27 33.11719 -143.21656 40370 ft 461 kts 238°
2026-05-05 07:28 33.07929 -143.27849 40362 ft 461 kts 238°
2026-05-05 07:28 33.04175 -143.33970 40362 ft 459 kts 238°
2026-05-05 07:29 33.00410 -143.40103 40361 ft 458 kts 238°
2026-05-05 07:29 32.96641 -143.46231 40359 ft 459 kts 238°
2026-05-05 07:30 32.92884 -143.52328 40360 ft 459 kts 238°
2026-05-05 07:30 32.87202 -143.61532 40363 ft 460 kts 238°
2026-05-05 07:31 32.83404 -143.67671 40362 ft 460 kts 238°
2026-05-05 07:31 32.79602 -143.73807 40380 ft 460 kts 237°
2026-05-05 07:32 32.75825 -143.79891 40373 ft 459 kts 237°
2026-05-05 07:32 32.72031 -143.85994 40359 ft 458 kts 237°
2026-05-05 07:33 32.68236 -143.92089 40362 ft 458 kts 237°
2026-05-05 07:33 32.64442 -143.98173 40370 ft 460 kts 237°
2026-05-05 07:34 32.60651 -144.04239 40367 ft 459 kts 237°
2026-05-05 07:34 32.57468 -144.09327 40371 ft 458 kts 237°
2026-05-05 07:35 32.53051 -144.16375 40363 ft 458 kts 237°
2026-05-05 07:35 32.49888 -144.21415 40361 ft 459 kts 237°
2026-05-05 07:36 32.46064 -144.27498 40370 ft 459 kts 237°
2026-05-05 07:36 32.42252 -144.33552 40371 ft 457 kts 237°
2026-05-05 07:37 32.38448 -144.39585 40362 ft 457 kts 237°
2026-05-05 07:37 32.34632 -144.45627 40356 ft 460 kts 237°
2026-05-05 07:38 32.30791 -144.51697 40361 ft 460 kts 237°
2026-05-05 07:38 32.26963 -144.57737 40363 ft 458 kts 237°
2026-05-05 07:39 32.23166 -144.63720 40350 ft 457 kts 237°
2026-05-05 07:39 32.19337 -144.69745 40356 ft 460 kts 236°
2026-05-05 07:40 32.15485 -144.75793 40368 ft 461 kts 236°
2026-05-05 07:40 32.11631 -144.81837 40366 ft 459 kts 236°
2026-05-05 07:41 32.07798 -144.87839 40349 ft 457 kts 236°
2026-05-05 07:41 32.03951 -144.93854 40360 ft 462 kts 236°
2026-05-05 07:42 32.00078 -144.99896 40358 ft 462 kts 236°
2026-05-05 07:42 31.96230 -145.05892 40364 ft 460 kts 236°
2026-05-05 07:43 31.92373 -145.11894 40348 ft 459 kts 236°
2026-05-05 07:43 31.88503 -145.17906 40353 ft 462 kts 236°
2026-05-05 07:44 31.84618 -145.23930 40359 ft 462 kts 236°
2026-05-05 07:44 31.80719 -145.29968 40358 ft 461 kts 236°
2026-05-05 07:45 31.76868 -145.35921 40353 ft 460 kts 236°
2026-05-05 07:45 31.72985 -145.41915 40350 ft 461 kts 236°
2026-05-05 07:46 31.69091 -145.47916 40348 ft 462 kts 236°
2026-05-05 07:46 31.65187 -145.53924 40363 ft 461 kts 236°
2026-05-05 07:47 31.61325 -145.59857 40351 ft 460 kts 235°
2026-05-05 07:47 31.57428 -145.65838 40350 ft 462 kts 235°
2026-05-05 07:48 31.53509 -145.71839 40352 ft 463 kts 235°
2026-05-05 07:48 31.49586 -145.77839 40354 ft 463 kts 235°
2026-05-05 07:49 31.45673 -145.83812 40354 ft 460 kts 235°
2026-05-05 07:49 31.41812 -145.89701 40348 ft 458 kts 235°
2026-05-05 07:50 31.37924 -145.95618 40342 ft 458 kts 235°
2026-05-05 07:50 31.34035 -146.01529 40342 ft 458 kts 235°
2026-05-05 07:51 31.30145 -146.07433 40350 ft 459 kts 235°
2026-05-05 07:51 31.26227 -146.13370 40352 ft 462 kts 235°
2026-05-05 07:52 31.22296 -146.19318 40355 ft 462 kts 235°
2026-05-05 07:52 31.18381 -146.25233 40358 ft 462 kts 235°
2026-05-05 07:53 31.14437 -146.31182 40344 ft 463 kts 234°
2026-05-05 07:53 31.10495 -146.37118 40347 ft 462 kts 234°
2026-05-05 07:54 31.06551 -146.43050 40342 ft 461 kts 234°
2026-05-05 07:54 31.02632 -146.48935 40342 ft 461 kts 234°
2026-05-05 07:55 30.98697 -146.54834 40325 ft 460 kts 234°
2026-05-05 07:55 30.94751 -146.60742 40349 ft 463 kts 234°
2026-05-05 07:56 30.90795 -146.66655 40351 ft 462 kts 234°
2026-05-05 07:56 30.86863 -146.72524 40350 ft 461 kts 234°
2026-05-05 07:57 30.82912 -146.78411 40346 ft 461 kts 234°
2026-05-05 07:57 30.78955 -146.84301 40336 ft 463 kts 234°
2026-05-05 07:58 30.75012 -146.90159 40340 ft 461 kts 234°
2026-05-05 07:58 30.71057 -146.96027 40338 ft 460 kts 234°
2026-05-05 07:59 30.67099 -147.01890 40336 ft 460 kts 234°
2026-05-05 07:59 30.63139 -147.07749 40337 ft 463 kts 234°
2026-05-05 08:00 30.59149 -147.13642 40348 ft 463 kts 234°
2026-05-05 08:00 30.55205 -147.19459 40347 ft 461 kts 234°
2026-05-05 08:01 30.51234 -147.25307 40346 ft 461 kts 234°
2026-05-05 08:01 30.47258 -147.31153 40333 ft 462 kts 234°
2026-05-05 08:02 30.43265 -147.37018 40337 ft 465 kts 234°
2026-05-05 08:02 30.39260 -147.42888 40344 ft 462 kts 234°
2026-05-05 08:03 30.35268 -147.48733 40336 ft 461 kts 234°
2026-05-05 08:03 30.31310 -147.54520 40325 ft 460 kts 234°
2026-05-05 08:04 30.27319 -147.60347 40329 ft 463 kts 233°
2026-05-05 08:04 30.23308 -147.66192 40343 ft 463 kts 234°
2026-05-05 08:05 30.19305 -147.72019 40327 ft 461 kts 234°
2026-05-05 08:05 30.15341 -147.77780 40333 ft 460 kts 233°
2026-05-05 08:06 30.11347 -147.83577 40322 ft 461 kts 234°
2026-05-05 08:06 30.07342 -147.89381 40327 ft 462 kts 233°
2026-05-05 08:07 30.03324 -147.95196 40333 ft 462 kts 233°
2026-05-05 08:07 29.99367 -148.00960 40331 ft 459 kts 236°
2026-05-05 08:08 29.95466 -148.06797 40313 ft 460 kts 234°
2026-05-05 08:08 29.91555 -148.12650 40314 ft 460 kts 235°
2026-05-05 08:09 29.87643 -148.18507 40313 ft 461 kts 234°
2026-05-05 08:09 29.83746 -148.24316 40321 ft 460 kts 235°
2026-05-05 08:10 29.79843 -148.30140 40325 ft 459 kts 234°
2026-05-05 08:10 29.75940 -148.35946 40315 ft 458 kts 234°
2026-05-05 08:11 29.72038 -148.41750 40317 ft 459 kts 234°
2026-05-05 08:11 29.68126 -148.47555 40320 ft 459 kts 234°
2026-05-05 08:12 29.64209 -148.53363 40328 ft 459 kts 234°
2026-05-05 08:12 29.60299 -148.59149 40321 ft 459 kts 235°
2026-05-05 08:13 29.56373 -148.64952 40321 ft 460 kts 234°
2026-05-05 08:13 29.52461 -148.70726 40320 ft 461 kts 234°
2026-05-05 08:14 29.48511 -148.76548 40318 ft 462 kts 234°
2026-05-05 08:14 29.44562 -148.82359 40310 ft 460 kts 235°
2026-05-05 08:15 29.40632 -148.88136 40313 ft 458 kts 235°
2026-05-05 08:15 29.36701 -148.93905 40310 ft 459 kts 234°
2026-05-05 08:16 29.32789 -148.99638 40307 ft 460 kts 234°
2026-05-05 08:16 29.28828 -149.05435 40314 ft 461 kts 234°
2026-05-05 08:17 29.24871 -149.11218 40304 ft 461 kts 235°
2026-05-05 08:17 29.20944 -149.16949 40301 ft 460 kts 235°
2026-05-05 08:18 29.16993 -149.22707 40303 ft 458 kts 235°
2026-05-05 08:18 29.13047 -149.28451 40301 ft 457 kts 235°
2026-05-05 08:19 29.09110 -149.34173 40306 ft 458 kts 235°
2026-05-05 08:19 29.05189 -149.39864 40304 ft 459 kts 235°
2026-05-05 08:20 29.01229 -149.45603 40304 ft 460 kts 235°
2026-05-05 08:20 28.97257 -149.51351 40310 ft 461 kts 235°
2026-05-05 08:21 28.93280 -149.57100 40313 ft 461 kts 235°
2026-05-05 08:21 28.89306 -149.62835 40294 ft 460 kts 235°
2026-05-05 08:22 28.86014 -149.67582 40296 ft 458 kts 235°
2026-05-05 08:22 28.82059 -149.73276 40295 ft 457 kts 235°
2026-05-05 08:23 28.77455 -149.79895 40296 ft 459 kts 235°
2026-05-05 08:23 28.74123 -149.84679 40298 ft 460 kts 234°
2026-05-05 08:24 28.70159 -149.90362 40301 ft 461 kts 234°
2026-05-05 08:24 28.66177 -149.96064 40297 ft 459 kts 234°
2026-05-05 08:25 28.62209 -150.01738 40289 ft 457 kts 234°
2026-05-05 08:25 28.58251 -150.07391 40290 ft 457 kts 234°
2026-05-05 08:26 28.54276 -150.13060 40294 ft 459 kts 234°
2026-05-05 08:26 28.50284 -150.18744 40298 ft 460 kts 234°
2026-05-05 08:27 28.46291 -150.24424 40300 ft 459 kts 234°
2026-05-05 08:27 28.42299 -150.30094 40297 ft 459 kts 234°
2026-05-05 08:28 28.38336 -150.35716 40296 ft 458 kts 234°
2026-05-05 08:28 28.34350 -150.41362 40295 ft 458 kts 234°
2026-05-05 08:29 28.30361 -150.47006 40293 ft 457 kts 234°
2026-05-05 08:30 28.24396 -150.55430 40289 ft 456 kts 234°
2026-05-05 08:30 28.20419 -150.61038 40286 ft 457 kts 234°
2026-05-05 08:31 28.16450 -150.66628 40298 ft 459 kts 234°
2026-05-05 08:31 28.12440 -150.72267 40291 ft 458 kts 234°
2026-05-05 08:32 28.08446 -150.77875 40286 ft 456 kts 234°
2026-05-05 08:32 28.04471 -150.83451 40281 ft 455 kts 234°
2026-05-05 08:33 28.00487 -150.89033 40283 ft 456 kts 234°
2026-05-05 08:33 27.96509 -150.94597 40286 ft 457 kts 234°
2026-05-05 08:34 27.92501 -151.00198 40289 ft 458 kts 234°
2026-05-05 08:34 27.88487 -151.05798 40294 ft 458 kts 234°
2026-05-05 08:35 27.84478 -151.11385 40289 ft 456 kts 234°
2026-05-05 08:35 27.80480 -151.16948 40286 ft 455 kts 234°
2026-05-05 08:36 27.76518 -151.22455 40282 ft 454 kts 234°
2026-05-05 08:36 27.72514 -151.28014 40281 ft 455 kts 234°
2026-05-05 08:37 27.68512 -151.33561 40285 ft 456 kts 234°
2026-05-05 08:37 27.64507 -151.39106 40286 ft 456 kts 234°
2026-05-05 08:38 27.60518 -151.44622 40288 ft 456 kts 234°
2026-05-05 08:38 27.56505 -151.50164 40287 ft 456 kts 234°
2026-05-05 08:39 27.52493 -151.55697 40282 ft 455 kts 234°
2026-05-05 08:39 27.48504 -151.61192 40279 ft 455 kts 234°
2026-05-05 08:40 27.44494 -151.66709 40281 ft 454 kts 234°
2026-05-05 08:40 27.40490 -151.72211 40273 ft 454 kts 234°
2026-05-05 08:41 27.36482 -151.77712 40276 ft 454 kts 234°
2026-05-05 08:41 27.32469 -151.83211 40275 ft 454 kts 234°
2026-05-05 08:42 27.28459 -151.88700 40271 ft 454 kts 234°
2026-05-05 08:42 27.24466 -151.94159 40280 ft 454 kts 234°
2026-05-05 08:43 27.20447 -151.99647 40281 ft 454 kts 234°
2026-05-05 08:43 27.16426 -152.05130 40278 ft 454 kts 234°
2026-05-05 08:44 27.12434 -152.10567 40271 ft 454 kts 234°
2026-05-05 08:44 27.08416 -152.16033 40272 ft 454 kts 234°
2026-05-05 08:45 27.04394 -152.21498 40268 ft 453 kts 234°
2026-05-05 08:45 27.00372 -152.26954 40269 ft 453 kts 233°
2026-05-05 08:46 26.96355 -152.32399 40266 ft 453 kts 233°
2026-05-05 08:46 26.92324 -152.37855 40256 ft 455 kts 233°
2026-05-05 08:47 26.88281 -152.43321 40274 ft 455 kts 233°
2026-05-05 08:47 26.84263 -152.48746 40275 ft 456 kts 233°
2026-05-05 08:48 26.80209 -152.54213 40277 ft 456 kts 233°
2026-05-05 08:48 26.76158 -152.59669 40277 ft 455 kts 233°
2026-05-05 08:49 26.72104 -152.65123 40276 ft 455 kts 233°
2026-05-05 08:49 26.68085 -152.70523 40264 ft 453 kts 233°
2026-05-05 08:50 26.64058 -152.75927 40259 ft 451 kts 233°
2026-05-05 08:50 26.60026 -152.81332 40261 ft 453 kts 233°
2026-05-05 08:51 26.55985 -152.86743 40265 ft 455 kts 233°
2026-05-05 08:51 26.51915 -152.92184 40272 ft 456 kts 233°
2026-05-05 08:52 26.47879 -152.97572 40262 ft 453 kts 233°
2026-05-05 08:52 26.43847 -153.02952 40257 ft 451 kts 233°
2026-05-05 08:53 26.39813 -153.08326 40256 ft 451 kts 233°
2026-05-05 08:53 26.35780 -153.13694 40263 ft 451 kts 233°
2026-05-05 08:54 26.31759 -153.19037 40259 ft 453 kts 233°
2026-05-05 08:54 26.27702 -153.24423 40251 ft 453 kts 233°
2026-05-05 08:55 26.23665 -153.29776 40247 ft 450 kts 233°
2026-05-05 08:55 26.19634 -153.35115 40249 ft 450 kts 233°
2026-05-05 08:56 26.15596 -153.40457 40250 ft 450 kts 233°
2026-05-05 08:56 26.11562 -153.45786 40255 ft 450 kts 233°
2026-05-05 08:57 26.07541 -153.51093 40256 ft 452 kts 233°
2026-05-05 08:57 26.03487 -153.56437 40255 ft 450 kts 233°
2026-05-05 08:58 25.99455 -153.61746 40253 ft 449 kts 233°
2026-05-05 08:58 25.95424 -153.67048 40249 ft 449 kts 233°
2026-05-05 08:59 25.91394 -153.72340 40249 ft 449 kts 233°
2026-05-05 08:59 25.87382 -153.77605 40258 ft 450 kts 233°
2026-05-05 09:00 25.83330 -153.82915 40262 ft 452 kts 233°
2026-05-05 09:00 25.79268 -153.88232 40259 ft 451 kts 233°
2026-05-05 09:01 25.75204 -153.93546 40250 ft 451 kts 233°
2026-05-05 09:01 25.71138 -153.98856 40253 ft 451 kts 233°
2026-05-05 09:02 25.67092 -154.04133 40254 ft 451 kts 233°
2026-05-05 09:02 25.63025 -154.09433 40239 ft 451 kts 233°
2026-05-05 09:03 25.58968 -154.14711 40244 ft 448 kts 233°
2026-05-05 09:03 25.54925 -154.19969 40241 ft 447 kts 233°
2026-05-05 09:04 25.50887 -154.25212 40241 ft 447 kts 233°
2026-05-05 09:04 25.46844 -154.30456 40238 ft 448 kts 233°
2026-05-05 09:05 25.42797 -154.35699 40238 ft 448 kts 233°
2026-05-05 09:05 25.38741 -154.40948 40237 ft 449 kts 233°
2026-05-05 09:06 25.34683 -154.46193 40237 ft 448 kts 233°
2026-05-05 09:06 25.30648 -154.51403 40239 ft 448 kts 233°
2026-05-05 09:07 25.26589 -154.56638 40240 ft 448 kts 233°
2026-05-05 09:07 25.22533 -154.61864 40239 ft 448 kts 233°
2026-05-05 09:08 25.18476 -154.67085 40240 ft 447 kts 233°
2026-05-05 09:08 25.14425 -154.72291 40245 ft 447 kts 233°
2026-05-05 09:09 25.10393 -154.77469 40244 ft 448 kts 233°
2026-05-05 09:09 25.06325 -154.82686 40244 ft 449 kts 233°
2026-05-05 09:10 25.02246 -154.87911 40246 ft 449 kts 233°
2026-05-05 09:10 24.98168 -154.93131 40242 ft 449 kts 233°
2026-05-05 09:11 24.94114 -154.98313 40226 ft 449 kts 233°
2026-05-05 09:11 24.90040 -155.03513 40228 ft 447 kts 233°
2026-05-05 09:12 24.86668 -155.07816 40218 ft 445 kts 233°
2026-05-05 09:12 24.82609 -155.12990 40221 ft 446 kts 233°
2026-05-05 09:13 24.78539 -155.18169 40222 ft 448 kts 233°
2026-05-05 09:13 24.74482 -155.23328 40229 ft 448 kts 233°
2026-05-05 09:14 24.70635 -155.28690 40219 ft 445 kts 238°
2026-05-05 09:14 24.67086 -155.34254 40226 ft 444 kts 238°
2026-05-05 09:15 24.63550 -155.39824 40232 ft 444 kts 238°
2026-05-05 09:15 24.60002 -155.45393 40230 ft 443 kts 238°
2026-05-05 09:16 24.56461 -155.50949 40232 ft 443 kts 238°
2026-05-05 09:16 24.52942 -155.56464 40231 ft 443 kts 238°
2026-05-05 09:17 24.49405 -155.62000 40228 ft 443 kts 238°
2026-05-05 09:17 24.45873 -155.67523 40221 ft 442 kts 238°
2026-05-05 09:18 24.42340 -155.73040 40218 ft 441 kts 238°
2026-05-05 09:18 24.38810 -155.78548 40218 ft 442 kts 238°
2026-05-05 09:19 24.35265 -155.84071 40223 ft 443 kts 238°
2026-05-05 09:19 24.31717 -155.89594 40221 ft 443 kts 238°
2026-05-05 09:20 24.28187 -155.95081 40227 ft 443 kts 238°
2026-05-05 09:20 24.24633 -156.00600 40210 ft 443 kts 238°
2026-05-05 09:21 24.21078 -156.06116 40216 ft 443 kts 238°
2026-05-05 09:21 24.17522 -156.11625 40213 ft 443 kts 238°
2026-05-05 09:22 24.13967 -156.17128 40208 ft 442 kts 238°
2026-05-05 09:22 24.10409 -156.22629 40209 ft 442 kts 238°
2026-05-05 09:23 24.06851 -156.28124 40210 ft 442 kts 238°
2026-05-05 09:23 24.03250 -156.33580 40205 ft 444 kts 231°
2026-05-05 09:23 24.00994 -156.35858 40249 ft 452 kts 219°
2026-05-05 09:24 23.98235 -156.37581 40247 ft 463 kts 207°
2026-05-05 09:24 23.95111 -156.38620 40247 ft 475 kts 195°